Location: *
(46.4833°N, 7.6667°E)
Time: 05:57:34
(UTC+00:00)

Cosmos 2221 Rocket - Pass Details

Date: 27 February 2020
Orbit: 619 x 649 km, 82.5° (Epoch: 28 March)

Event Time Altitude Azimuth Distance (km) Brightness Sun altitude
Rises 18:19:19 0° 359° (N) 2,958 7.1 -12.4°
Reaches altitude 10° 18:21:48 10° 10° (N) 2,038 6.1 -12.9°
Maximum altitude 18:25:50 31° 73° (ENE) 1,115 4.3 -13.6°
Enters shadow 18:28:34 17° 126° (SE) 1,598 5.2 -14.0°
